Wind_Speed
19 17 10 6 2 4 3 3 2 4 2 3 6 5 10 10 2 5 18 14 18 18 19 19 19 21 21 21 21 20 20 20 20 19 21 19 16 13 12 9 8 8 7 6 7 6 6 5 6
18 17 8 2 3 3 2 3 6 3 8 17 13 8 10 5 7 19 18 19 19 20 21 20 19 20 21 20 20 21 21 22 22 19 18 15 13 13 11 9 8 7 6 6 6 6 6 5 5
13 9 1 1 3 1 1 3 8 12 11 5 6 10 5 3 16 22 20 22 21 21 21 20 19 20 21 20 20 21 23 23 18 17 16 15 15 13 10 8 7 6 5 5 6 6 5 5 4
12 4 1 4 3 2 1 7 15 11 5 6 15 7 9 9 17 19 22 22 22 22 22 21 21 20 21 20 21 21 22 18 16 16 15 13 12 10 8 7 6 5 4 5 4 4 4 4 4
11 2 3 4 4 4 4 9 15 5 6 10 5 6 9 7 16 22 23 23 23 22 21 21 20 19 20 20 21 21 19 17 16 15 12 11 10 8 7 6 4 4 3 3 4 5 5 5 6
4 2 5 2 2 3 4 9 9 10 10 12 13 10 5 10 19 22 22 22 20 21 21 20 19 20 21 21 19 17 15 14 15 14 12 11 9 8 6 4 2 2 2 4 5 5 5 5 6
3 3 4 4 3 1 2 12 6 6 13 8 17 5 11 18 20 22 22 21 21 20 20 20 21 21 21 20 18 16 15 14 13 12 11 9 7 5 3 1 1 2 3 4 4 6 6 5 5
4 4 4 2 5 3 5 6 8 10 4 20 18 6 11 26 24 22 22 21 20 20 19 19 20 21 21 20 17 15 13 13 11 11 9 7 5 4 4 2 1 3 4 4 5 4 5 6 6
6 4 3 6 8 4 14 4 14 5 18 4 7 15 25 31 27 24 24 22 21 21 19 19 20 21 20 19 16 14 13 12 9 10 9 7 6 3 2 0 2 2 3 4 3 4 4 2 5
3 4 9 8 8 7 16 13 11 7 14 5 12 22 32 31 28 26 27 26 24 23 21 20 20 19 19 18 16 15 14 12 9 9 8 5 5 4 2 1 1 3 4 5 3 4 4 2 4
1 4 6 8 21 26 13 15 6 18 3 12 30 35 34 30 28 27 26 25 24 21 20 20 18 17 18 17 16 14 13 12 11 9 7 5 5 3 1 1 3 4 5 4 6 5 4 4 5
2 5 8 11 18 25 16 17 10 12 6 16 32 37 35 32 29 28 26 24 23 23 20 18 18 17 16 15 15 13 13 12 11 9 6 5 4 2 1 1 3 5 6 7 8 7 6 8 9
4 4 8 15 21 22 24 11 7 12 9 24 33 34 34 33 29 26 24 22 22 22 21 18 17 17 16 14 13 13 12 11 8 10 6 5 5 5 4 6 6 6 8 9 8 8 10 11 12
1 9 14 14 17 13 11 7 15 13 22 27 34 34 33 33 30 28 27 23 21 20 19 18 17 17 17 12 13 11 11 12 10 10 8 7 6 7 10 10 8 8 9 9 11 12 13 14 14
16 6 8 7 9 4 18 2 7 23 30 32 33 34 32 30 30 29 27 24 19 21 18 17 14 16 16 12 13 11 11 12 13 14 13 13 12 11 12 12 12 9 10 12 14 15 15 14 13
5 5 5 4 8 13 10 6 4 29 32 29 29 31 33 32 31 29 28 26 24 23 22 16 14 14 13 13 11 13 13 14 12 12 12 12 13 13 13 12 11 11 11 14 16 14 15 15 15
5 6 4 5 10 7 3 4 10 29 29 27 29 29 31 33 33 32 29 27 27 23 23 22 19 16 11 12 13 11 12 15 16 17 16 15 15 14 13 14 13 13 14 13 11 13 15 15 15
6 7 1 6 7 8 6 5 12 25 26 28 29 31 32 33 36 33 31 29 28 26 25 24 22 20 14 12 14 15 16 17 19 20 20 18 16 15 13 12 10 11 8 12 16 17 15 15 15
8 7 12 3 1 2 6 4 15 24 23 23 26 29 33 36 34 33 33 31 31 29 28 27 25 21 18 17 18 19 17 16 16 17 17 18 17 16 12 10 10 8 11 18 19 16 12 11 11
9 8 11 1 4 2 1 4 9 19 26 28 27 27 33 38 35 35 36 36 34 32 28 27 25 24 19 20 18 19 16 16 15 14 15 15 13 11 8 8 9 11 16 17 13 10 11 11 10
7 17 7 18 7 3 5 4 7 10 19 22 26 33 32 34 37 36 35 36 35 35 31 25 23 26 23 21 20 22 20 17 15 16 15 12 8 8 9 9 13 14 14 8 10 11 9 9 8
7 8 14 10 12 8 7 5 7 14 16 16 29 30 35 39 38 39 39 38 39 35 31 27 25 27 24 22 23 23 21 17 13 12 13 14 13 13 11 13 13 13 6 6 9 6 6 6 6
8 8 10 12 10 6 2 2 7 13 13 21 28 35 37 44 43 42 42 42 40 36 34 31 25 27 28 27 26 26 24 19 15 14 14 14 15 15 14 13 13 8 7 6 7 5 5 3 3
10 8 7 5 4 2 9 10 6 7 21 25 23 36 39 43 45 44 42 40 41 39 36 34 31 29 29 30 30 27 25 21 18 16 15 14 15 16 15 13 10 8 6 8 5 5 4 3 2
6 7 1 3 1 5 6 5 13 10 14 23 22 36 40 40 44 46 44 43 43 44 40 38 35 35 34 34 32 30 26 22 18 15 15 15 16 16 14 12 10 8 7 7 7 7 7 6 5
7 9 6 7 6 5 3 9 14 21 23 24 25 29 32 36 45 48 48 46 46 46 43 40 40 39 37 37 35 31 27 24 19 18 17 15 16 15 14 12 10 10 11 9 9 8 7 8 8
5 4 7 7 2 3 5 8 7 7 9 14 27 24 34 42 45 50 49 49 47 47 49 46 45 42 41 40 37 34 30 26 21 19 17 16 16 15 13 12 12 12 11 10 9 8 8 9 9
8 8 4 2 5 4 4 4 6 5 11 11 8 26 37 41 41 46 50 49 51 50 51 49 45 44 43 43 41 38 33 28 22 20 18 17 14 15 15 14 13 12 12 10 9 9 9 11 11
3 3 5 5 4 7 4 6 9 11 12 12 15 31 33 40 45 47 49 49 51 54 53 53 50 47 47 47 44 42 38 32 26 22 20 18 16 16 17 15 14 13 11 10 9 9 10 11 10
11 10 9 6 5 3 4 7 5 11 8 7 21 28 30 37 42 44 46 46 48 52 55 56 55 52 50 50 47 45 41 36 30 25 20 19 18 17 15 14 15 14 11 10 9 8 9 11 12
Wind_Direction
165 178 212 287 14 71 101 133 120 115 102 76 114 99 99 49 50 148 147 152 151 146 146 143 133 133 134 136 138 139 137 138 137 141 140 144 142 142 142 130 110 105 102 95 79 73 65 60 45
167 172 186 307 60 55 312 111 102 83 130 105 79 80 50 70 84 130 147 149 150 144 142 146 135 133 132 133 135 137 138 137 134 139 143 148 146 141 141 136 128 119 103 89 81 65 46 35 33
160 153 257 96 86 62 136 91 119 122 124 109 111 69 70 70 124 136 146 148 149 144 143 142 139 137 134 136 137 140 143 140 138 140 146 148 147 141 139 133 120 103 89 80 63 46 32 22 17
166 209 246 70 68 360 42 121 125 130 94 70 105 65 69 118 128 144 145 146 149 148 146 146 146 143 141 141 138 142 148 151 151 147 150 153 153 144 133 126 111 99 91 75 40 18 8 6 358
170 234 47 65 18 358 55 114 136 112 74 97 80 87 95 143 143 146 146 146 151 149 150 150 149 148 146 145 145 148 153 156 155 162 162 153 149 143 132 122 116 109 92 34 7 357 353 345 347
179 233 58 90 22 21 38 120 115 96 112 110 95 102 99 145 153 150 152 152 155 153 152 153 153 153 151 152 154 154 155 157 163 162 155 151 150 145 134 125 113 96 13 341 351 358 359 349 354
174 88 124 112 97 19 189 149 114 126 134 118 129 97 143 157 160 153 154 156 160 158 159 161 159 159 158 156 154 151 152 154 156 159 156 156 156 139 115 120 98 2 345 343 4 356 353 352 357
196 95 101 111 165 220 168 130 165 132 89 139 138 155 163 162 161 157 159 162 164 166 167 165 166 168 166 166 163 161 161 161 164 168 172 170 155 134 82 78 329 322 316 340 0 13 35 34 34
191 72 147 168 153 203 165 131 160 166 143 141 164 166 167 158 159 161 165 170 172 173 172 172 174 176 180 181 180 181 176 171 172 178 183 176 169 162 187 268 329 346 354 355 1 5 356 20 11
155 114 196 176 171 165 164 154 164 134 157 104 128 151 157 164 168 171 176 177 181 179 179 180 182 182 182 186 189 186 181 181 184 183 179 184 191 190 187 268 37 347 329 332 342 350 357 345 339
79 160 171 179 181 167 162 150 177 144 216 194 158 159 166 170 177 181 182 185 182 182 184 183 184 185 188 189 191 191 191 193 192 192 193 202 203 208 257 252 311 317 329 338 341 353 348 348 331
103 195 162 160 177 156 163 157 143 162 246 200 172 166 168 175 180 184 183 186 187 187 186 185 186 189 189 189 195 197 202 199 202 201 203 196 201 209 213 213 318 313 323 317 329 312 315 322 323
210 150 157 158 172 154 149 159 167 201 166 166 165 169 174 180 182 184 185 188 191 195 193 193 194 193 192 190 194 198 199 196 197 206 210 228 243 245 278 290 292 304 313 313 315 314 307 305 305
80 145 124 129 129 134 132 154 148 200 168 168 170 176 180 187 188 188 193 192 191 192 195 191 192 188 185 187 188 193 196 198 211 219 234 246 253 260 263 272 278 291 309 312 303 299 297 298 296
131 94 71 114 132 117 140 169 215 171 175 170 176 182 186 194 197 195 192 190 184 184 184 181 188 191 199 206 200 205 217 227 243 242 235 249 257 256 270 277 285 280 296 305 310 305 303 304 302
95 70 108 219 150 164 151 237 197 171 169 175 185 190 195 199 203 203 201 199 195 191 191 186 191 185 204 206 216 225 232 235 243 243 248 247 251 263 268 277 276 274 285 295 303 302 299 297 296
21 152 146 166 205 148 164 231 173 175 174 179 188 195 200 206 211 210 207 205 205 202 199 196 198 210 214 210 217 226 234 240 246 248 252 255 259 260 266 277 272 272 284 298 306 308 302 296 294
171 127 157 193 199 165 175 242 168 180 180 184 195 201 205 210 215 214 213 210 211 209 209 206 204 205 215 222 228 236 240 246 253 254 252 252 259 263 266 280 268 275 279 310 309 309 302 300 302
150 158 187 124 29 11 202 189 181 189 193 195 199 205 209 214 221 221 218 215 213 211 213 210 209 210 217 224 229 236 243 252 259 251 248 249 253 256 264 273 273 268 297 311 311 310 304 304 307
167 154 202 136 148 158 285 277 198 198 204 203 202 207 211 218 221 226 222 221 219 213 211 212 213 215 219 229 239 242 246 252 251 245 239 246 247 252 250 258 269 283 294 299 305 312 301 296 307
178 187 171 210 146 143 136 300 193 219 217 219 225 222 218 215 218 224 223 223 221 216 214 214 214 219 224 234 237 237 240 249 246 242 236 233 228 234 249 239 261 280 288 288 312 303 298 298 300
161 198 193 149 154 205 161 253 226 202 212 217 223 224 224 224 226 228 227 225 223 221 219 217 216 219 225 231 232 236 246 252 245 235 223 220 231 224 242 256 269 287 247 292 318 301 295 293 297
211 163 159 172 172 121 210 84 266 176 218 227 223 221 220 224 226 226 228 229 228 223 222 222 221 226 229 231 234 239 244 247 241 233 234 229 222 230 232 253 276 256 262 296 308 294 292 289 294
147 94 58 50 104 186 209 183 248 193 214 228 221 221 217 218 224 230 231 232 230 225 224 223 222 224 229 229 231 234 238 240 240 235 233 229 227 229 240 253 256 253 267 304 297 292 306 313 295
87 85 40 60 80 211 210 191 233 219 228 221 214 214 216 213 219 228 227 227 228 224 221 221 218 219 219 219 222 227 232 233 237 242 243 236 234 238 247 256 245 248 276 289 289 280 282 287 284
181 157 154 186 181 206 121 208 240 232 237 237 239 223 213 210 216 223 227 228 227 225 221 219 216 217 216 220 222 224 228 233 238 241 240 238 241 246 252 241 242 252 262 257 267 261 270 271 280
184 157 187 108 42 99 199 280 305 238 254 226 234 217 215 216 213 220 224 226 228 227 222 221 217 216 218 220 221 222 222 226 234 239 239 237 238 234 229 236 246 245 248 261 259 259 279 282 284
163 168 96 354 151 221 264 270 231 241 239 241 231 213 215 216 213 217 223 225 224 228 226 223 223 220 219 221 221 222 222 225 227 231 234 232 229 232 238 240 245 245 252 255 259 266 276 285 283
119 162 60 121 134 174 198 254 214 210 211 222 238 227 213 210 220 219 223 227 229 226 227 225 224 225 224 225 225 225 224 222 222 229 230 231 234 240 244 249 250 249 252 255 261 273 283 283 284
182 183 169 191 227 223 171 252 222 221 241 231 231 226 215 218 223 225 226 228 229 228 227 228 227 229 230 230 228 227 226 222 220 226 228 231 232 237 238 239 245 247 251 253 264 272 276 278 281
Height
1495 1497 1496 1496 1504 1502 1516 1515 1508 1513 1513 1513 1513 1513 1517 1521 1522 1536 1532 1535 1537 1539 1541 1544 1546 1548 1550 1552 1555 1557 1559 1562 1564 1569 1569 1573 1573 1574 1577 1577 1577 1577 1578 1577 1577 1577 1576 1576 1575
1498 1499 1499 1500 1506 1520 1520 1508 1513 1511 1512 1514 1514 1517 1518 1525 1525 1528 1533 1535 1538 1541 1543 1546 1548 1550 1552 1554 1557 1559 1562 1566 1567 1571 1573 1575 1576 1576 1578 1578 1578 1579 1579 1579 1579 1578 1577 1577 1576
1500 1502 1502 1501 1510 1521 1519 1509 1510 1512 1514 1514 1517 1519 1522 1528 1528 1531 1534 1536 1540 1543 1545 1548 1550 1553 1555 1557 1560 1562 1566 1568 1570 1572 1575 1576 1577 1578 1579 1580 1580 1580 1580 1580 1580 1579 1579 1578 1577
1501 1503 1503 1510 1515 1506 1507 1509 1509 1513 1515 1515 1517 1523 1527 1530 1531 1534 1536 1539 1542 1545 1547 1551 1553 1556 1558 1561 1563 1565 1568 1571 1573 1575 1577 1578 1579 1580 1580 1581 1582 1582 1582 1581 1581 1580 1579 1578 1577
1502 1502 1508 1513 1513 1507 1505 1509 1510 1513 1516 1518 1518 1528 1530 1534 1535 1537 1539 1542 1545 1548 1550 1553 1556 1559 1561 1564 1566 1568 1571 1572 1574 1577 1578 1579 1581 1581 1582 1582 1583 1582 1582 1582 1582 1581 1580 1578 1578
1502 1502 1516 1524 1516 1510 1509 1510 1513 1515 1518 1521 1523 1527 1534 1536 1537 1539 1542 1545 1548 1550 1552 1556 1559 1561 1564 1566 1568 1570 1572 1574 1576 1578 1579 1581 1582 1583 1583 1583 1583 1583 1583 1582 1582 1581 1579 1579 1578
1498 1504 1516 1518 1518 1514 1511 1512 1514 1517 1519 1522 1523 1529 1534 1536 1539 1541 1544 1547 1550 1552 1555 1557 1560 1563 1566 1568 1570 1572 1574 1576 1578 1579 1581 1582 1583 1584 1584 1584 1584 1584 1583 1583 1582 1581 1580 1579 1578
1496 1499 1511 1514 1520 1519 1511 1513 1514 1517 1520 1522 1524 1529 1533 1535 1539 1543 1546 1549 1552 1555 1557 1559 1561 1564 1567 1570 1572 1573 1575 1577 1579 1581 1582 1583 1584 1584 1584 1585 1584 1585 1583 1583 1581 1581 1581 1579 1579
1494 1508 1518 1514 1516 1512 1511 1514 1517 1518 1521 1522 1524 1524 1528 1534 1539 1543 1546 1550 1553 1556 1558 1560 1563 1565 1568 1570 1572 1574 1576 1578 1580 1581 1582 1583 1584 1584 1584 1584 1584 1584 1584 1583 1582 1582 1581 1580 1580
1493 1505 1505 1498 1501 1506 1509 1513 1517 1519 1521 1523 1524 1526 1531 1535 1539 1542 1545 1548 1552 1555 1558 1561 1563 1566 1568 1570 1572 1574 1576 1578 1580 1581 1583 1583 1584 1584 1585 1586 1584 1584 1584 1583 1583 1582 1581 1581 1580
1487 1496 1493 1496 1498 1501 1510 1514 1517 1519 1521 1519 1519 1524 1530 1535 1539 1543 1546 1548 1550 1554 1557 1560 1563 1565 1567 1569 1571 1574 1576 1578 1579 1581 1582 1583 1584 1584 1585 1585 1585 1585 1584 1584 1583 1582 1581 1580 1579
1490 1488 1490 1493 1496 1500 1507 1512 1515 1518 1517 1517 1520 1525 1529 1534 1538 1542 1545 1548 1551 1553 1557 1559 1562 1564 1567 1569 1571 1573 1575 1577 1579 1580 1581 1582 1583 1583 1583 1584 1585 1584 1583 1583 1583 1582 1581 1580 1579
1487 1489 1489 1491 1494 1499 1507 1511 1514 1517 1516 1520 1524 1528 1531 1535 1538 1542 1546 1548 1551 1553 1556 1559 1562 1564 1567 1569 1571 1573 1574 1576 1578 1579 1580 1581 1582 1582 1583 1584 1583 1583 1582 1582 1581 1580 1580 1579 1578
1485 1488 1490 1495 1499 1503 1507 1512 1513 1519 1519 1523 1526 1528 1531 1534 1537 1541 1544 1547 1550 1553 1555 1558 1561 1563 1565 1568 1570 1572 1574 1575 1577 1578 1579 1580 1581 1581 1582 1582 1581 1581 1581 1580 1579 1578 1577 1576 1575
1486 1496 1494 1498 1500 1505 1508 1516 1513 1514 1518 1522 1526 1529 1532 1535 1538 1539 1541 1545 1548 1551 1554 1557 1560 1562 1565 1567 1569 1571 1572 1574 1575 1576 1577 1578 1579 1579 1579 1580 1579 1579 1579 1579 1577 1575 1574 1573 1572
1489 1494 1509 1503 1501 1504 1507 1521 1511 1513 1516 1521 1525 1528 1530 1533 1536 1539 1542 1544 1547 1550 1552 1556 1559 1561 1564 1566 1567 1568 1570 1572 1573 1574 1575 1576 1576 1576 1577 1576 1577 1577 1577 1577 1575 1574 1572 1570 1569
1494 1511 1507 1507 1501 1502 1508 1514 1508 1512 1514 1518 1522 1525 1528 1531 1534 1536 1539 1542 1545 1548 1551 1554 1557 1559 1562 1563 1565 1566 1568 1569 1570 1571 1572 1573 1573 1574 1574 1574 1574 1575 1575 1574 1573 1571 1570 1568 1567
1503 1506 1503 1506 1501 1501 1508 1510 1508 1510 1513 1514 1518 1521 1524 1526 1528 1532 1535 1539 1542 1546 1549 1552 1554 1557 1560 1561 1562 1564 1564 1565 1566 1567 1568 1570 1571 1571 1571 1572 1571 1572 1573 1572 1570 1569 1567 1565 1564
1484 1492 1496 1498 1497 1505 1506 1506 1506 1508 1512 1513 1514 1517 1519 1522 1524 1529 1532 1536 1539 1543 1546 1549 1552 1555 1557 1558 1559 1560 1561 1562 1563 1563 1564 1566 1567 1568 1569 1570 1569 1570 1570 1569 1567 1565 1563 1562 1560
1483 1494 1498 1497 1498 1506 1509 1509 1506 1508 1505 1508 1511 1513 1515 1517 1521 1524 1528 1532 1535 1538 1541 1545 1548 1552 1553 1554 1556 1557 1559 1560 1560 1560 1560 1561 1563 1565 1566 1567 1567 1567 1567 1566 1564 1563 1561 1560 1560
1485 1485 1496 1495 1499 1502 1509 1514 1509 1505 1507 1509 1509 1508 1513 1515 1517 1520 1524 1527 1531 1534 1537 1540 1544 1547 1549 1551 1553 1554 1555 1556 1556 1556 1557 1558 1560 1562 1564 1564 1565 1565 1564 1563 1562 1561 1560 1559 1558
1491 1476 1481 1494 1502 1519 1502 1533 1511 1500 1502 1502 1501 1502 1505 1508 1512 1515 1518 1521 1525 1529 1533 1536 1540 1542 1544 1547 1548 1549 1551 1552 1553 1554 1555 1556 1557 1559 1561 1562 1562 1561 1561 1561 1560 1559 1559 1558 1557
1475 1468 1478 1486 1498 1506 1510 1522 1501 1497 1503 1493 1489 1493 1496 1499 1503 1507 1511 1515 1519 1525 1529 1533 1536 1538 1540 1542 1544 1546 1548 1549 1550 1551 1552 1553 1553 1555 1556 1558 1558 1557 1558 1558 1558 1557 1557 1557 1557
1462 1474 1490 1500 1507 1527 1506 1507 1506 1504 1481 1473 1478 1483 1485 1490 1495 1500 1504 1511 1516 1521 1524 1527 1530 1532 1535 1537 1540 1542 1544 1546 1547 1548 1548 1549 1551 1552 1553 1555 1555 1555 1555 1555 1555 1555 1556 1556 1556
1463 1482 1516 1526 1532 1531 1498 1513 1485 1471 1464 1459 1462 1468 1474 1481 1487 1492 1498 1503 1507 1512 1517 1520 1523 1525 1528 1531 1534 1537 1540 1543 1544 1545 1547 1547 1549 1550 1551 1552 1553 1554 1554 1554 1553 1553 1554 1554 1554
1469 1475 1509 1522 1534 1513 1503 1508 1472 1453 1451 1455 1459 1461 1468 1472 1477 1482 1488 1494 1499 1505 1511 1514 1516 1518 1522 1526 1529 1533 1537 1539 1542 1543 1544 1545 1546 1548 1549 1550 1551 1552 1552 1553 1552 1552 1552 1552 1552
1464 1477 1467 1501 1505 1511 1507 1482 1458 1451 1451 1450 1450 1455 1457 1460 1465 1470 1477 1485 1490 1497 1501 1504 1507 1512 1516 1520 1524 1527 1531 1534 1538 1540 1541 1541 1542 1544 1545 1547 1549 1549 1550 1550 1550 1549 1550 1549 1549
1446 1453 1479 1497 1511 1516 1504 1489 1482 1457 1451 1443 1445 1444 1443 1449 1457 1463 1468 1474 1481 1486 1491 1498 1503 1505 1509 1514 1517 1521 1524 1530 1532 1535 1537 1539 1541 1543 1544 1544 1545 1547 1547 1547 1547 1547 1546 1546 1546
1452 1460 1470 1477 1490 1505 1511 1497 1452 1447 1439 1438 1434 1432 1435 1441 1445 1452 1458 1465 1470 1478 1484 1489 1494 1498 1502 1506 1511 1515 1519 1523 1526 1530 1532 1534 1538 1541 1544 1545 1546 1544 1544 1544 1544 1544 1544 1543 1543
1432 1445 1451 1469 1488 1492 1490 1481 1431 1430 1430 1431 1429 1426 1432 1436 1441 1446 1451 1459 1464 1469 1475 1479 1485 1489 1493 1498 1504 1508 1513 1517 1522 1523 1527 1531 1533 1536 1540 1541 1542 1543 1542 1542 1540 1540 1541 1540 1540